Location: Del Amo
(33.8464°N, 118.2104°W)
Time: 11:16:19
(UTC+00:00)

STRAND 1 - Visible Passes

Search period start: 06 October 2024 00:00
Search period end: 16 October 2024 00:00
Orbit: 765 x 776 km, 98.4° (Epoch: 05 October)

Date Brightness Start Highest point End Pass type
(mag) Time Alt. Az. Time Alt. Az. Time Alt. Az.
06 Oct ? 01:48:51 10° NNE 01:53:53 53° E 01:58:51 10° S visible
06 Oct ? 03:29:32 10° NNW 03:32:29 16° WNW 03:35:24 10° W visible
06 Oct ? 13:00:10 10° SSE 13:05:04 49° ENE 13:10:00 10° N visible
07 Oct ? 02:53:03 10° N 02:57:38 34° WNW 03:02:11 10° SW visible
07 Oct ? 12:26:16 10° ESE 12:30:08 22° ENE 12:34:01 10° NNE visible
08 Oct ? 02:17:28 10° N 02:22:37 77° WNW 02:27:42 10° SSW visible
09 Oct ? 03:22:44 10° NNW 03:26:05 18° WNW 03:29:26 10° WSW visible
09 Oct ? 12:53:50 10° SE 12:58:37 42° ENE 13:03:26 10° N visible
10 Oct ? 02:46:27 10° N 02:51:12 39° WNW 02:55:54 10° SW visible
10 Oct ? 12:20:09 10° ESE 12:23:43 19° ENE 12:27:17 10° NNE visible
11 Oct ? 02:10:58 10° NNE 02:16:08 89° W 02:21:14 10° SSW visible
11 Oct ? 13:22:06 10° SSE 13:27:13 84° ENE 13:32:22 10° N visible
12 Oct ? 03:15:56 10° NNW 03:19:39 21° WNW 03:23:21 10° WSW visible
12 Oct ? 12:47:30 10° SE 12:52:09 36° ENE 12:56:49 10° N visible
13 Oct ? 02:39:50 10° N 02:44:42 45° WNW 02:49:33 10° SW visible
13 Oct ? 12:14:04 10° ESE 12:17:15 17° ENE 12:20:26 10° NNE visible
14 Oct ? 02:04:26 10° NNE 02:09:35 79° ESE 02:14:41 10° S visible
14 Oct ? 03:47:06 10° NW 03:47:57 10° WNW 03:48:48 10° WNW visible
14 Oct ? 13:15:36 10° SSE 13:20:41 72° ENE 13:25:49 10° N visible
15 Oct ? 03:09:09 10° NNW 03:13:09 24° WNW 03:17:09 10° WSW visible
15 Oct ? 12:41:10 10° SE 12:45:38 32° ENE 12:50:08 10° N visible
